AirNav   ATP
 
 946 users online  

25AL Lucas Army Heliport
Fort Rucker/Goodman, Alabama, USA

GOING TO FORT RUCKER/GOODMAN?


FAA INFORMATION EFFECTIVE 29 MARCH 2018

Location

FAA Identifier: 25AL
Lat/Long: 31-16-11.5500N / 086-02-27.3800W
31-16.192500N / 086-02.456333W
31.2698750 / -86.0409389
(estimated)
Elevation: 336 ft. / 102 m (estimated)
Variation: 02W (2000)
From city: 2 miles SW of central business district of the associated city
Time zone: UTC -5 (UTC -6 during Standard Time)
Zip code: 36323

Heliport Operations

Heliport use: Private use. Permission required prior to landing
Activation date: 05/2002
Control tower: no
ARTCC: JACKSONVILLE CENTER
FSS: ANNISTON FLIGHT SERVICE STATION
NOTAMs facility: OZR (NOTAM-D service available)
Attendance: UNATNDD EXCP DURG TRNG
Segmented circle: no

Heliport Communications

OPNS: 126.2
WX AWOS-3 at EDN (7 nm E): 118.9 (334-347-3524)
WX ASOS at 79J (18 nm W): 134.875 (334-222-9770)

Nearby radio navigation aids

VOR radial/distance  VOR name  Freq  Var
EDNr260/(7.3)ENTERPRISE VOR116.6003W
OZRr273/16.1CAIRNS VOR/DME111.2003W
HEYr256/(20.9)HANCHEY VOR110.6003W
RRSr266/31.3WIREGRASS VORTAC111.6002E

 
NDB name  Hdg/Dist  Freq  Var  ID
BOLL WEEVIL219/5.235203WBVG -... ...- --.
RUCKR286/11.821203WOZ --- --..
LOWE253/16.226903WLOR .-.. --- .-.
JUDD099/18.126402WJUY .--- ..- -.--
HANCHEY255/20.822103WHYE .... -.-- .
BLOOD178/33.836504WTOI - --- ..

Heliport Services

Runway Information

Helipad H1

Dimensions: 1600 x 75 ft. / 488 x 23 m
Surface: asphalt
Traffic pattern: leftleft

Helipad H2

Dimensions: 1600 x 75 ft. / 488 x 23 m
Surface: asphalt
Traffic pattern: leftleft

Helipad H3

Dimensions: 1600 x 75 ft. / 488 x 23 m
Surface: asphalt
Traffic pattern: leftleft

Helipad H4

Dimensions: 1600 x 75 ft. / 488 x 23 m
Surface: asphalt
Traffic pattern: leftleft

Helipad H5

Dimensions: 1600 x 75 ft. / 488 x 23 m
Surface: asphalt
Traffic pattern: leftleft

Helipad H6

Dimensions: 1600 x 75 ft. / 488 x 23 m
Surface: asphalt
Traffic pattern: leftleft

Helipad H7

Dimensions: 1600 x 75 ft. / 488 x 23 m
Surface: turf
Traffic pattern: leftleft

Heliport Ownership and Management from official FAA records

Ownership: U.S. Army
Owner: US ARMY AVIATION CTR & FORT RUCKER
NOVOSEL ST
FORT RUCKER, AL 36362
Phone 334-255-9764
Manager: JACK A HOLMES
USAACE G3 AIR,
FORT RUCKER, AL 36362
Phone 334-255-9764

Instrument Procedures

There are no published instrument procedures at 25AL.

Some nearby airports with instrument procedures:

KEDN - Enterprise Municipal Airport (7 nm E)
KLOR - Lowe Army Heliport (Fort Rucker) (16 nm E)
33J - Geneva Municipal Airport (16 nm SE)
KOZR - Cairns Army Airfield (Fort Rucker) (17 nm E)
79J - South Alabama Regional Airport at Bill Benton Field (18 nm W)
0J4 - Florala Municipal Airport (19 nm SW)
 
Loc | Ops | Rwys | IFR | FBO | Links
Com | Nav | Svcs | Stats | Notes

AirNav Hotels Sweepstakes
 
Area around 25AL (Lucas Army Heliport)
 
Road maps at: MapQuest Bing Google
 
Aerial photo
No photo
 
Sectional chart

 
Airport distance calculator
Flying to Lucas Army Heliport? Find the distance to fly.

From to 25AL

Sunrise and sunset
Times for 22-Apr-2018
 Local
(UTC-5)
 Zulu
(UTC)
Morning civil twilight05:4410:44
Sunrise06:0911:09
Sunset19:1600:16
Evening civil twilight19:4100:41

Current date and time
Zulu (UTC)  23-Apr-2018 02:01:40
Local (UTC-5)  22-Apr-2018 21:01:40
 
METAR
KEDN 
7nm E 
230155Z AUTO 16005G08KT 10SM -DZ BKN008 BKN011 OVC017 19/19 A2993 RMK AO2 P0003 T01930193
KSXS 
11nm NE 
230158Z AUTO 19006KT 9SM -RA OVC003 20/19 A2993 RMK AO2 RAB06 OVC V BKN SLP135 P0005 T01950189
KLOR 
16nm E 
230158Z AUTO 17005KT 7SM -RA BKN007 BKN014 OVC032 19/19 A2993 RMK AO2 RAE05RAB11 CIG 007V012 SLP117 P0009 $
KOZR 
17nm E 
230156Z AUTO 14006KT 10SM -RA BKN009 BKN018 OVC033 20/19 A2993 RMK AO2 RAE0056DZB07E08RAB08E32DZB32E35RAB35E51RAB54 CIG 009V018 BKN009 V SCT SLP136 P0005 T01980191 $
K79J 
19nm W 
230156Z AUTO 15008KT 10SM OVC008 22/19 A2991 RMK AO2 CIG 006V012 SLP123 T02170194
K0J4 
19nm SW 
230158Z AUTO 18007KT 10SM FEW009 OVC027 21/18 A2995 RMK AO2 SLP137 T02060183 $
TAF
KOZR 
17nm E 
230000Z 2300/2406 16012KT 8000 -SHRA VCTS BKN012CB OVC025 QNH2984INS TEMPO 2302/2304 17015G25KT 3200 -TSRA OVC006CB BECMG 2303/2304 18009KT 9999 NSW OVC008 QNH2986INS BECMG 2314/2315 20010G15KT 9999 BKN015 BKN030 QNH2988INS BECMG 2317/2318 22012G18KT 9999 SCT050 QNH2990INS BECMG 2402/2403 21009KT 9999 SKC QNH2995INS TX24/2321Z TN19/2312Z
NOTAMs
Click for the latest NOTAMs
NOTAMs are issued by the DoD/FAA and will open in a separate window not controlled by AirNav.

 

 
 

Would you like to see your business listed on this page?

 If your business provides an interesting product or service to pilots, flight crews, aircraft, or users of the Lucas Army Heliport, you should consider listing it here.  To start the listing process, click on the button below
 
Add a business
 

Other Pages about Lucas Army Heliport

Update a link
 
Copyright © AirNav, LLC. All rights reserved. Privacy Policy  Contact